Regional Weather Roundup
Issued by NWS Charleston, SC

Current Version | Previous Version | Graphics & Text | Print | Product List | Glossary On
Versions: 1 2 3 4 5 6 7 8 9 10 11 12 13 14 15 16 17 18 19 20 21 22 23 24 25 26 27 28 29 30 31 32 33 34 35 36 37 38 39 40 41 42 43 44 45 46 47 48 49 50
000
ASUS42 KCHS 161610
RWRCHS

REGIONAL WEATHER ROUNDUP
NATIONAL WEATHER SERVICE CHARLESTON SC
1200 PM EDT TUE SEP 16 2014

NOTE: "FAIR" INDICATES FEW OR NO CLOUDS BELOW 12,000 FEET WITH NO
SIGNIFICANT WEATHER AND/OR OBSTRUCTIONS TO VISIBILITY.

NOT ALL STATIONS ARE QUALITY CONTROLLED BY THE NATIONAL
WEATHER SERVICE. USE DATA WITH CAUTION...ESPECIALLY
DEWPOINT OBSERVATIONS.

SCZ027-030-031-034>040-042>050-161700-
...SOUTH CAROLINA...

CITY           SKY/WX    TMP DP  RH WIND       PRES   REMARKS
N CHARLESTON   PTSUNNY   86  74  67 NW10      30.03F HX  94
WATERFRONT PRK   N/A     82 N/A N/A SW3G10      N/A
FORT JOHNSON   NOT AVBL
MOUNT PLEASANT RAIN      82  77  83 N6        30.03F HX  91
JOHNS ISLAND   MOSUNNY   84  84 100 CALM      30.04F HX 104
PINOPOLIS        N/A     84  73  70 CALM      29.99S HX  91
MONCKS CORNER    N/A     82  75  78 CALM      30.04F
SUMMERVILLE    PTSUNNY   81  75  83 NW5       30.04F
BEAUFORT MCAS  PTSUNNY   85  74  69 S6        30.03F HX  92
BEAUFORT ARPT  PTSUNNY   84  75  74 W5        30.03F HX  92
HILTON HEAD IS PTSUNNY   82  73  74 N7        30.05F
GEORGETOWN     NOT AVBL
WALTERBORO     PTSUNNY   84  72  65 CALM      30.04F
ORANGEBURG     PTSUNNY   79  71  76 VRB5      30.05F
BARNWELL       CLOUDY    81  73  78 NW5       30.07F
AIKEN          FAIR      81  73  78 SW7       30.09F
MANNING        CLOUDY    81  75  83 CALM      30.04F
KINGSTREE      NOT AVBL
COLUMBIA       PTSUNNY   82  69  64 CALM      30.04F
SUMTER         CLOUDY    79  68  69 W2        30.04F
FLORENCE       PTSUNNY   81  69  67 N6        30.04F
MYRTLE BEACH   PTSUNNY   82  72  69 N9        30.03F
N MYRTLE BEACH MOSUNNY   83  71  67 VRB6      30.03F

$$

GAZ063-065-086>088-099>101-113>116-118-119-134-136>141-150-161700-
...GEORGIA...

CITY           SKY/WX    TMP DP  RH WIND       PRES   REMARKS
SAVANNAH ARPT  CLOUDY    82  73  74 NW5       30.05F
HUNTER AAF     PTSUNNY   83  74  73 N7        30.03S HX  90
FORT STEWART   PTSUNNY   81  72  75 VRB3      30.04F
STATESBORO     NOT AVBL
SYLVANIA       PTSUNNY   83  75  75 NW6       30.06F HX  91
CLAXTON        NOT AVBL
THOMSON        PTSUNNY   80  77  91 NW5       30.11F
AUGUSTA-BUSH   PTSUNNY   82  71  69 NW7       30.05F
AUGUSTA-DANIEL MOSUNNY   82  72  71 VRB6      30.07F
SWAINSBORO     PTSUNNY   82  79  89 NW3       30.07F HX  93
VIDALIA        CLOUDY    79  73  83 N5        30.07S
ALMA           CLOUDY    81  73  76 VRB3      30.06S
WAYCROSS       CLOUDY    84  78  83 N6        30.05S HX  94
JESUP          CLOUDY    82  77  83 NE5       30.06S HX  91
BRUNSWICK      CLOUDY    79  73  83 CALM      30.07R
SAINT SIMONS   CLOUDY    79  73  82 CALM      30.05F

$$

SCZ027-028-034-036>038-045-046-048>050-GAZ119-141-161700-
...LAKE AND SUPPLEMENTAL COASTAL OBSERVATIONS...

STATION/POSITION TIME  TEMP    WIND        PRES    WAVE   SWELL
                       AIR SEA DIR/SP/G            HT/PER HT/PER/DIR
                 (UTC) (F)     (DEG/KT/KT) (MB)    (FT/S) (FT/S/D)
UPR LAKE MARION  NOT AVBL
WINYAH BAY       1500   78     310/  5     1017.0S
LAKE MURRAY      1500   79     190/  6/  8 1017.3F
ACE BASIN NERRS  1500   81     290/  1     1018.0S
FORT PULASKI     1600   80     270/  1/  2 1017.7F
SAPELO ISLAND    1500   80     330/  2     1018.0S

$$

ANZ835-935-AMZ111-154-330-350-352-354-374-450-454-472-161700-
...C-MAN AND BUOY OBSERVATIONS...

STATION/POSITION TIME  TEMP    WIND        PRES    WAVE   SWELL
                       AIR SEA DIR/SP/G            HT/PER HT/PER/DIR
                 (UTC) (F)     (DEG/KT/KT) (MB)    (FT/S) (FT/S/D)
FOLLY BEACH CMAN 1500   80     310/  3/  4 1018.2R
BUOY 41004       1600   81 84  330/  4/  6 1016.7F   2/ 8   2/ 8
BUOY 41008       1600   78 84  330/  6/  8 1017.6F   2/ 8   2/100/ 8
5E ST. MARYS GA  1600      84                N/A     2/ 9
FRYING PAN BUOY  NOT AVBL
BUOY 41025       1600   76     310/  4/  8 1016.5F   2/ 8   2/ 40/ 8
CAPE LOOKOUT NC  1500   75     130/  2/  2 1017.3F
BUOY 41002       1535   80 83  260/ 10/ 12 1017.2F   3/13   2/130/13
BUOY 41010       1600   83 85  300/  6/  6 1018.3F   2/ 8   2/ 10/ 8
BUOY 41012       NOT AVBL
ST AUGUSTINE FL  1600   82     260/  7/  8 1018.6F
CAPERS NEARSHORE 1500   81     360/  2/  2   N/A
FRIPP NEARSHORE  NOT AVBL


$$


USA.gov is the U.S. government's official web portal to all federal, state and local government web resources and services.